Hourly Data Report for May 07, 2020

All times are specified in Local Standard Time (LST). Add 1 hour to adjust for Daylight Saving Time where and when it is observed.

OTTAWA INTL A
ONTARIO
Current Station Operator: NAVCAN

45°19'00.000" N
75°40'00.000" W
114.90 m
6106001
71628
YOW

Download Data

Hourly Data (May 2020)
Hourly Data Report for May 7, 2020
TIME Temp Definition
°C
Dew Point Definition
°C
Rel Hum Definition
%
Wind Dir Definition
10's deg

Wind Spd Definition
km/h
Visibility Definition
km
Stn Press Definition
kPa
Hmdx Definition


Wind Chill Definition


Weather Definition


00:00 7.5 -6.8 36 4 7 24.1 99.53     LegendNANA
01:00 4.6 -6.3 45 30 8 24.1 99.51     Clear
02:00 5.6 -7.9 37 0 1 24.1 99.47     LegendNANA
03:00 2.6 -4.6 59 23 3 24.1 99.43     LegendNANA
04:00 3.2 -5.5 53 7 4 24.1 99.41     Mostly Cloudy
05:00 4.3 -4.1 54 6 4 24.1 99.38     LegendNANA
06:00 6.0 -4.0 49 5 9 24.1 99.34     LegendNANA
07:00 8.9 -4.0 40 8 9 24.1 99.29     Mainly Clear
08:00 11.5 -5.3 30 19 11 24.1 99.25     LegendNANA
09:00 13.2 -4.0 30 27 16 24.1 99.18     LegendNANA
10:00 14.2 -3.7 28 24 22 24.1 99.10     Mainly Clear
11:00 13.4 -3.8 30 28 17 24.1 99.05     LegendNANA
12:00 13.7 -3.5 30 29 33 24.1 99.03     LegendNANA
13:00 13.0 -3.4 32 29 36 24.1 99.04     Mostly Cloudy
14:00 11.8 -0.6 42 30 32 24.1 99.04     LegendNANA
15:00 11.3 -2.4 38 28 33 24.1 99.04     LegendNANA
16:00 9.2 -2.9 42 28 27 24.1 99.12     Mostly Cloudy
17:00 8.4 -6.4 34 28 27 24.1 99.14     LegendNANA
18:00 7.3 -3.0 48 33 23 24.1 99.18     LegendNANA
19:00 6.8 -4.7 44 34 24 24.1 99.24     Mostly Cloudy
20:00 5.3 -5.7 45 34 12 24.1 99.30     LegendNANA
21:00 4.2 -6.0 47 32 18 24.1 99.37     LegendNANA
22:00 4.1 -8.2 40 35 12 24.1 99.42     Clear
23:00 3.3 -9.1 40 36 12 24.1 99.43     LegendNANA

Notes on Data Quality.

Legend

  • E = Estimated
  • M = Missing
  • NA = Not Available*
  • [empty] = Indicates an unobserved value
Date modified: